WB5MTX Weather Reports


Display with metric or nautical units.
time (UTC)temp
F
wind
direction
speed
MPH
gust
MPH
rain 1hr
in
rain 24hr
in
rain mn
in
humidity
%
barometer
mb
20260906024603 88 0 1.0 7.0 0.00 0.00 0.00 60 1012.5
20260906023110 88 102 0.0 9.0 0.00 0.00 0.00 58 1012.2
20260906021608 89 111 1.0 10.0 0.00 0.00 0.00 56 1012.0
20260906020105 90 81 1.0 10.0 0.00 0.00 0.00 54 1011.8
20260906014607 91 102 2.0 14.0 0.00 0.00 0.00 51 1011.6
20260906013103 93 0 0.0 7.0 0.00 0.00 0.00 49 1011.1
20260906011606 93 0 1.0 7.0 0.00 0.00 0.00 46 1010.9
20260906010108 94 0 0.0 6.0 0.00 0.00 0.00 45 1010.8
20260906004605 95 0 0.0 4.0 0.00 0.00 0.00 42 1010.8
20260906003059 96 96 0.0 3.0 0.00 0.00 0.00 40 1010.7
20260906001605 97 0 0.0 2.0 0.00 0.00 0.00 40 1010.6
20260906000106 97 0 0.0 6.0 0.00 0.00 0.00 39 1010.6
20260905234602 97 0 0.0 7.0 0.00 0.00 0.00 38 1010.6
20260905233116 98 103 1.0 9.0 0.00 0.00 0.00 39 1010.4
20260905231557 98 0 0.0 8.0 0.00 0.00 0.00 38 1010.5
20260905230103 100 0 0.0 6.0 0.00 0.00 0.00 37 1010.4
20260905224604 100 0 0.0 4.0 0.00 0.00 0.00 37 1010.4
20260905223102 100 0 0.0 2.0 0.00 0.00 0.00 35 1010.4
20260905221553 100 96 1.0 7.0 0.00 0.00 0.00 36 1010.5
20260905220105 102 0 0.0 5.0 0.00 0.00 0.00 35 1010.6
20260905214601 102 207 0.0 2.0 0.00 0.00 0.00 35 1010.8
20260905213100 100 209 0.0 5.0 0.00 0.00 0.00 36 1010.9
20260905211613 100 0 0.0 4.0 0.00 0.00 0.00 38 1011.1
20260905210111 99 0 0.0 7.0 0.00 0.00 0.00 38 1011.4
20260905204555 99 211 0.0 6.0 0.00 0.00 0.00 38 1011.5
20260905203106 99 0 1.0 8.0 0.00 0.00 0.00 37 1011.7
20260905201602 98 0 0.0 6.0 0.00 0.00 0.00 39 1011.9
20260905200105 98 0 1.0 7.0 0.00 0.00 0.00 40 1012.2
20260905194557 98 0 0.0 6.0 0.00 0.00 0.00 39 1012.3
20260905193106 98 0 0.0 9.0 0.00 0.00 0.00 40 1012.7
20260905191601 97 0 0.0 6.0 0.00 0.00 0.00 42 1013.0
20260905190104 96 0 0.0 9.0 0.00 0.00 0.00 41 1013.3
20260905184610 96 178 0.0 5.0 0.00 0.00 0.00 42 1013.5
20260905183119 96 200 1.0 6.0 0.00 0.00 0.00 44 1013.7
20260905181606 97 121 0.0 7.0 0.00 0.00 0.00 42 1013.8
20260905180108 96 0 0.0 7.0 0.00 0.00 0.00 44 1014.1
20260905174601 95 0 0.0 6.0 0.00 0.00 0.00 45 1014.3
20260905173106 94 0 0.0 6.0 0.00 0.00 0.00 46 1014.5
20260905171601 94 205 2.0 8.0 0.00 0.00 0.00 45 1014.6
20260905170105 93 0 0.0 6.0 0.00 0.00 0.00 49 1014.8
20260905164602 93 99 2.0 8.0 0.00 0.00 0.00 47 1014.8
20260905163107 93 0 0.0 5.0 0.00 0.00 0.00 50 1014.8
20260905161734 91 0 0.0 3.0 0.00 0.00 0.00 53 1014.8
20260905073107 79 0 0.0 3.0 0.00 0.00 0.00 76 1013.4
20260905071559 79 213 0.0 0.0 0.00 0.00 0.00 75 1013.5
20260905070108 80 0 0.0 3.0 0.00 0.00 0.00 75 1013.7
20260905064559 80 0 0.0 3.0 0.00 0.01 0.00 74 1013.8
20260905063104 81 0 1.0 6.0 0.00 0.01 0.00 73 1013.8
20260905061604 81 0 0.0 3.0 0.00 0.01 0.00 73 1013.8
20260905060109 82 194 0.0 0.0 0.00 0.01 0.00 72 1013.8
20260905054604 82 0 0.0 0.0 0.00 0.16 0.00 71 1013.6
20260905053100 83 0 0.0 5.0 0.00 0.16 0.00 70 1013.3
20260905051558 83 0 0.0 11.0 0.00 0.16 0.00 70 1013.2
20260905050109 83 0 0.0 5.0 0.00 0.16 0.00 69 1013.1
20260905044603 84 0 0.0 4.0 0.00 0.16 0.16 67 1013.2
20260905043106 84 211 0.0 3.0 0.00 0.16 0.16 67 1013.2
20260905041602 85 0 0.0 3.0 0.00 0.16 0.16 65 1013.1
20260905040104 85 0 0.0 5.0 0.00 0.16 0.16 63 1013.2
20260905034601 85 0 0.0 3.0 0.00 0.16 0.16 61 1013.1
20260905033104 86 0 0.0 3.0 0.00 0.16 0.16 60 1013.2
20260905031617 86 0 0.0 3.0 0.00 0.16 0.16 60 1013.1
20260905030100 87 0 0.0 0.0 0.00 0.16 0.16 60 1013.0